EZY86EG LPFR-EGKK

Flight info

Callsign EZY86EG
Flight time 2h 24m
Altitude 34000
Route ELVAR DCT BARDI DCT ZMR N873 DELOG DCT ERCOZ DCT BADUR DCT FEJAC DCT JSY DCT REVTU UP88 VASUX
Aircraft A320/M-SDE2E3FGHIRWXY/LB1

Departure

Time 2026-05-07 10:20
Airport Faro - Gago Coutinho International Airport (LPFR)

Arrival

Time 2026-05-07 12:45
Airport London Gatwick Airport (EGKK)
Time Latitude Longitude Altitude Speed Heading
2026-05-07 09:48 37.01907 -7.96770 22 ft 0 kts
2026-05-07 10:11 37.01896 -7.96772 22 ft 3 kts
2026-05-07 10:11 37.01876 -7.96776 22 ft 3 kts
2026-05-07 10:12 37.01856 -7.96780 21 ft 3 kts
2026-05-07 10:12 37.01838 -7.96787 23 ft 3 kts 37°
2026-05-07 10:12 37.01827 -7.96802 21 ft 3 kts 85°
2026-05-07 10:12 37.01827 -7.96817 22 ft 2 kts 100°
2026-05-07 10:13 37.01830 -7.96835 24 ft 1 kts 100°
2026-05-07 10:13 37.01830 -7.96837 24 ft 0 kts 100°
2026-05-07 10:16 37.01830 -7.96832 24 ft 4 kts 99°
2026-05-07 10:16 37.01823 -7.96787 23 ft 8 kts 100°
2026-05-07 10:16 37.01806 -7.96656 20 ft 22 kts 99°
2026-05-07 10:16 37.01783 -7.96532 21 ft 12 kts 121°
2026-05-07 10:17 37.01715 -7.96524 21 ft 11 kts 190°
2026-05-07 10:17 37.01630 -7.96530 20 ft 12 kts 151°
2026-05-07 10:17 37.01605 -7.96431 20 ft 15 kts 101°
2026-05-07 10:17 37.01580 -7.96257 20 ft 26 kts 100°
2026-05-07 10:18 37.01547 -7.96027 20 ft 22 kts 99°
2026-05-07 10:18 37.01515 -7.95865 20 ft 17 kts 115°
2026-05-07 10:18 37.01444 -7.95839 20 ft 5 kts 193°
2026-05-07 10:18 37.01412 -7.95846 20 ft 4 kts 190°
2026-05-07 10:19 37.01378 -7.95854 20 ft 7 kts 190°
2026-05-07 10:19 37.01348 -7.95887 20 ft 6 kts 255°
2026-05-07 10:19 37.01354 -7.95943 20 ft 2 kts 281°
2026-05-07 10:20 37.01370 -7.96050 20 ft 44 kts 280°
2026-05-07 10:20 37.01464 -7.96717 23 ft 108 kts 280°
2026-05-07 10:20 37.01627 -7.97865 69 ft 153 kts 281°
2026-05-07 10:20 37.01820 -7.99148 731 ft 150 kts 279°
2026-05-07 10:21 37.02006 -8.00465 1282 ft 159 kts 280°
2026-05-07 10:21 37.02214 -8.01915 1628 ft 181 kts 283°
2026-05-07 10:21 37.02454 -8.03556 1929 ft 203 kts 281°
2026-05-07 10:21 37.02726 -8.05407 2269 ft 228 kts 282°
2026-05-07 10:22 37.03134 -8.07427 2690 ft 250 kts 298°
2026-05-07 10:22 37.04366 -8.08980 3346 ft 261 kts 335°
2026-05-07 10:22 37.06151 -8.09340 4117 ft 267 kts 10°
2026-05-07 10:22 37.07811 -8.08334 4947 ft 271 kts 45°
2026-05-07 10:23 37.09074 -8.06572 5806 ft 274 kts 46°
2026-05-07 10:23 37.10713 -8.05363 6632 ft 279 kts 16°
2026-05-07 10:23 37.12639 -8.05006 7460 ft 282 kts
2026-05-07 10:23 37.14604 -8.05005 8298 ft 284 kts 357°
2026-05-07 10:24 37.16564 -8.05081 9147 ft 287 kts 357°
2026-05-07 10:24 37.18570 -8.05098 9972 ft 291 kts
2026-05-07 10:24 37.20599 -8.04575 10412 ft 309 kts 14°
2026-05-07 10:24 37.22739 -8.03778 10676 ft 330 kts 16°
2026-05-07 10:25 37.24961 -8.02898 11280 ft 338 kts 16°
2026-05-07 10:25 37.27215 -8.01985 11979 ft 342 kts 16°
2026-05-07 10:25 37.29488 -8.01058 12703 ft 346 kts 16°
2026-05-07 10:25 37.31792 -8.00121 13415 ft 350 kts 16°
2026-05-07 10:26 37.34123 -7.99182 14061 ft 353 kts 15°
2026-05-07 10:26 37.36475 -7.98240 14716 ft 356 kts 15°
2026-05-07 10:26 37.38837 -7.97297 15370 ft 358 kts 14°
2026-05-07 10:26 37.41220 -7.96347 16026 ft 360 kts 14°
2026-05-07 10:27 37.42807 -7.95713 16453 ft 362 kts 14°
2026-05-07 10:27 37.45240 -7.94742 17113 ft 364 kts 14°
2026-05-07 10:27 37.47628 -7.93790 17748 ft 366 kts 14°
2026-05-07 10:27 37.50062 -7.92816 18356 ft 368 kts 13°
2026-05-07 10:28 37.52544 -7.91823 18887 ft 370 kts 13°
2026-05-07 10:28 37.54970 -7.90852 19403 ft 372 kts 13°
2026-05-07 10:28 37.57448 -7.89861 19939 ft 374 kts 13°
2026-05-07 10:28 37.59938 -7.88862 20469 ft 376 kts 12°
2026-05-07 10:29 37.62437 -7.87857 20971 ft 378 kts 12°
2026-05-07 10:29 37.64953 -7.86848 21469 ft 380 kts 12°
2026-05-07 10:29 37.67486 -7.85833 21958 ft 383 kts 11°
2026-05-07 10:30 37.72585 -7.83788 22968 ft 387 kts 11°
2026-05-07 10:30 37.75156 -7.82754 23443 ft 389 kts 11°
2026-05-07 10:30 37.77743 -7.81710 23840 ft 391 kts 11°
2026-05-07 10:30 37.80346 -7.80658 24233 ft 393 kts 11°
2026-05-07 10:31 37.82954 -7.79603 24614 ft 395 kts 10°
2026-05-07 10:31 37.85581 -7.78541 24991 ft 397 kts 10°
2026-05-07 10:31 37.88221 -7.77473 25359 ft 399 kts 10°
2026-05-07 10:31 37.90875 -7.76398 25726 ft 401 kts 10°
2026-05-07 10:32 37.93543 -7.75317 26093 ft 403 kts 10°
2026-05-07 10:32 37.96214 -7.74233 26494 ft 405 kts 10°
2026-05-07 10:32 37.98901 -7.73140 26855 ft 406 kts 10°
2026-05-07 10:32 38.01598 -7.72043 27216 ft 408 kts
2026-05-07 10:33 38.04310 -7.70945 27553 ft 410 kts
2026-05-07 10:33 38.07033 -7.69845 27903 ft 412 kts
2026-05-07 10:33 38.09770 -7.68739 28249 ft 414 kts
2026-05-07 10:33 38.12519 -7.67621 28584 ft 416 kts
2026-05-07 10:34 38.15281 -7.66495 28916 ft 418 kts
2026-05-07 10:34 38.18056 -7.65361 29234 ft 420 kts
2026-05-07 10:34 38.20838 -7.64224 29546 ft 422 kts
2026-05-07 10:34 38.23640 -7.63080 29870 ft 424 kts
2026-05-07 10:35 38.26456 -7.61928 30150 ft 426 kts
2026-05-07 10:35 38.29282 -7.60771 30408 ft 427 kts
2026-05-07 10:35 38.32108 -7.59611 30696 ft 428 kts
2026-05-07 10:35 38.34941 -7.58447 30987 ft 428 kts
2026-05-07 10:36 38.37770 -7.57282 31360 ft 426 kts
2026-05-07 10:36 38.40585 -7.56124 31735 ft 424 kts
2026-05-07 10:36 38.43381 -7.54976 32169 ft 421 kts
2026-05-07 10:36 38.46165 -7.53833 32563 ft 419 kts
2026-05-07 10:37 38.48901 -7.52707 32912 ft 418 kts
2026-05-07 10:37 38.51693 -7.51557 33266 ft 416 kts
2026-05-07 10:37 38.54413 -7.50439 33609 ft 415 kts
2026-05-07 10:37 38.57164 -7.49309 33887 ft 415 kts
2026-05-07 10:38 38.62583 -7.47072 33936 ft 405 kts
2026-05-07 10:38 38.67928 -7.44861 33931 ft 402 kts
2026-05-07 10:39 38.73246 -7.42666 33935 ft 402 kts
2026-05-07 10:39 38.78561 -7.40463 33939 ft 402 kts
2026-05-07 10:40 38.83883 -7.38247 33936 ft 402 kts
2026-05-07 10:40 38.89198 -7.36037 33966 ft 401 kts
2026-05-07 10:41 38.94511 -7.33827 33957 ft 402 kts
2026-05-07 10:41 38.99831 -7.31606 33946 ft 402 kts
2026-05-07 10:42 39.05142 -7.29379 33936 ft 402 kts
2026-05-07 10:42 39.10455 -7.27158 33933 ft 402 kts
2026-05-07 10:43 39.15774 -7.24928 33945 ft 402 kts
2026-05-07 10:43 39.21093 -7.22687 33930 ft 403 kts 11°
2026-05-07 10:44 39.26209 -7.19536 33930 ft 413 kts 19°
2026-05-07 10:44 39.31336 -7.16129 33904 ft 415 kts 19°
2026-05-07 10:45 39.36479 -7.12716 33925 ft 417 kts 20°
2026-05-07 10:45 39.41652 -7.09294 33909 ft 418 kts 20°
2026-05-07 10:46 39.46839 -7.05849 33891 ft 419 kts 20°
2026-05-07 10:46 39.52034 -7.02385 33907 ft 420 kts 20°
2026-05-07 10:47 39.57235 -6.98909 33907 ft 421 kts 20°
2026-05-07 10:47 39.62440 -6.95425 33906 ft 421 kts 21°
2026-05-07 10:48 39.67651 -6.91938 33905 ft 421 kts 21°
2026-05-07 10:48 39.72858 -6.88450 33915 ft 422 kts 21°
2026-05-07 10:49 39.78072 -6.84950 33907 ft 422 kts 21°
2026-05-07 10:49 39.83285 -6.81442 33952 ft 422 kts 22°
2026-05-07 10:50 39.88497 -6.77929 33943 ft 422 kts 22°
2026-05-07 10:50 39.93670 -6.74431 33931 ft 422 kts 22°
2026-05-07 10:51 39.98909 -6.70883 33922 ft 421 kts 22°
2026-05-07 10:51 40.04115 -6.67366 33916 ft 421 kts 22°
2026-05-07 10:52 40.09311 -6.63849 33924 ft 421 kts 22°
2026-05-07 10:52 40.14472 -6.60340 33917 ft 421 kts 22°
2026-05-07 10:53 40.19660 -6.56799 33917 ft 420 kts 22°
2026-05-07 10:53 40.24842 -6.53257 33910 ft 420 kts 22°
2026-05-07 10:54 40.30023 -6.49717 33925 ft 420 kts 23°
2026-05-07 10:54 40.35204 -6.46168 33933 ft 421 kts 24°
2026-05-07 10:55 40.40472 -6.42563 33909 ft 433 kts 24°
2026-05-07 10:55 40.45824 -6.38886 33913 ft 435 kts 24°
2026-05-07 10:56 40.51184 -6.35191 33911 ft 435 kts 24°
2026-05-07 10:56 40.56544 -6.31489 33911 ft 435 kts 24°
2026-05-07 10:57 40.61906 -6.27789 33912 ft 435 kts 24°
2026-05-07 10:57 40.67269 -6.24094 33909 ft 435 kts 24°
2026-05-07 10:58 40.72628 -6.20390 33911 ft 435 kts 24°
2026-05-07 10:58 40.77980 -6.16686 33924 ft 433 kts 23°
2026-05-07 10:59 40.83257 -6.13022 33940 ft 431 kts 23°
2026-05-07 10:59 40.88547 -6.09343 33937 ft 429 kts 23°
2026-05-07 11:00 40.93831 -6.05659 33927 ft 430 kts 24°
2026-05-07 11:00 40.99134 -6.01967 33903 ft 431 kts 24°
2026-05-07 11:01 41.04447 -5.98254 33897 ft 433 kts 24°
2026-05-07 11:01 41.09777 -5.94522 33897 ft 434 kts 24°
2026-05-07 11:02 41.15115 -5.90779 33902 ft 434 kts 24°
2026-05-07 11:02 41.20455 -5.87025 33918 ft 434 kts 25°
2026-05-07 11:03 41.25805 -5.83260 33902 ft 436 kts 25°
2026-05-07 11:03 41.31166 -5.79473 33901 ft 437 kts 25°
2026-05-07 11:04 41.36534 -5.75672 33903 ft 437 kts 25°
2026-05-07 11:04 41.41903 -5.71873 33905 ft 438 kts 25°
2026-05-07 11:05 41.47286 -5.68055 33900 ft 439 kts 26°
2026-05-07 11:05 41.52693 -5.64219 33892 ft 440 kts 24°
2026-05-07 11:06 41.58322 -5.60996 33897 ft 441 kts 21°
2026-05-07 11:06 41.63978 -5.57811 33900 ft 441 kts 21°
2026-05-07 11:07 41.69639 -5.54611 33902 ft 442 kts 21°
2026-05-07 11:07 41.75308 -5.51401 33909 ft 442 kts 21°
2026-05-07 11:08 41.80979 -5.48185 33906 ft 443 kts 21°
2026-05-07 11:08 41.86647 -5.44974 33918 ft 443 kts 21°
2026-05-07 11:09 41.92324 -5.41737 33913 ft 443 kts 21°
2026-05-07 11:09 41.98006 -5.38490 33911 ft 444 kts 21°
2026-05-07 11:10 42.03696 -5.35249 33908 ft 444 kts 21°
2026-05-07 11:10 42.09389 -5.32006 33914 ft 445 kts 22°
2026-05-07 11:11 42.15104 -5.28727 33893 ft 448 kts 22°
2026-05-07 11:11 42.20841 -5.25431 33895 ft 449 kts 22°
2026-05-07 11:12 42.26603 -5.22118 33897 ft 451 kts 22°
2026-05-07 11:12 42.32335 -5.18809 33911 ft 451 kts 22°
2026-05-07 11:13 42.38110 -5.15468 33914 ft 451 kts 22°
2026-05-07 11:13 42.43886 -5.12119 33915 ft 452 kts 22°
2026-05-07 11:14 42.49662 -5.08763 33918 ft 452 kts 22°
2026-05-07 11:14 42.55439 -5.05409 33924 ft 451 kts 22°
2026-05-07 11:15 42.61205 -5.02053 33927 ft 451 kts 22°
2026-05-07 11:15 42.66972 -4.98687 33926 ft 451 kts 22°
2026-05-07 11:16 42.71765 -4.95881 33932 ft 451 kts 22°
2026-05-07 11:16 42.77540 -4.92498 33902 ft 453 kts 23°
2026-05-07 11:17 42.83338 -4.89089 33902 ft 455 kts 23°
2026-05-07 11:17 42.89172 -4.85653 33907 ft 457 kts 23°
2026-05-07 11:18 42.95010 -4.82218 33905 ft 458 kts 23°
2026-05-07 11:18 43.00861 -4.78763 33906 ft 458 kts 23°
2026-05-07 11:19 43.06714 -4.75297 33907 ft 458 kts 23°
2026-05-07 11:19 43.12568 -4.71816 33909 ft 459 kts 23°
2026-05-07 11:20 43.18428 -4.68333 33919 ft 459 kts 23°
2026-05-07 11:20 43.24290 -4.64841 33916 ft 459 kts 23°
2026-05-07 11:21 43.30149 -4.61338 33918 ft 459 kts 23°
2026-05-07 11:21 43.35999 -4.57834 33929 ft 459 kts 23°
2026-05-07 11:22 43.41861 -4.54324 33902 ft 460 kts 24°
2026-05-07 11:22 43.47741 -4.50795 33902 ft 462 kts 24°
2026-05-07 11:23 43.53592 -4.47263 33908 ft 463 kts 24°
2026-05-07 11:23 43.59491 -4.43702 33926 ft 463 kts 23°
2026-05-07 11:24 43.65391 -4.40139 33926 ft 463 kts 23°
2026-05-07 11:24 43.71282 -4.36568 33929 ft 463 kts 24°
2026-05-07 11:25 43.77179 -4.32990 33945 ft 462 kts 23°
2026-05-07 11:25 43.83063 -4.29405 33950 ft 462 kts 24°
2026-05-07 11:26 43.88938 -4.25817 33955 ft 461 kts 23°
2026-05-07 11:26 43.94808 -4.22235 33959 ft 461 kts 23°
2026-05-07 11:27 44.00671 -4.18640 33959 ft 460 kts 24°
2026-05-07 11:27 44.06528 -4.15035 33956 ft 460 kts 24°
2026-05-07 11:28 44.12378 -4.11437 33962 ft 460 kts 24°
2026-05-07 11:28 44.18230 -4.07833 33982 ft 459 kts 24°
2026-05-07 11:29 44.24069 -4.04220 33982 ft 459 kts 24°
2026-05-07 11:29 44.29906 -4.00612 33980 ft 458 kts 21°
2026-05-07 11:30 44.36047 -3.98467 33981 ft 455 kts
2026-05-07 11:30 44.42346 -3.97913 33983 ft 454 kts
2026-05-07 11:31 44.48646 -3.97351 33980 ft 453 kts
2026-05-07 11:31 44.54902 -3.96781 33987 ft 453 kts
2026-05-07 11:32 44.64331 -3.95927 33996 ft 452 kts
2026-05-07 11:33 44.70604 -3.95361 33995 ft 451 kts
2026-05-07 11:33 44.76864 -3.94784 33991 ft 451 kts
2026-05-07 11:34 44.83126 -3.94214 33989 ft 451 kts
2026-05-07 11:34 44.89386 -3.93644 33986 ft 451 kts
2026-05-07 11:35 44.95643 -3.93082 33995 ft 450 kts
2026-05-07 11:35 45.01891 -3.92515 33998 ft 449 kts
2026-05-07 11:36 45.08130 -3.91938 33996 ft 449 kts
2026-05-07 11:36 45.14364 -3.91376 34005 ft 448 kts
2026-05-07 11:37 45.20587 -3.90799 34003 ft 448 kts
2026-05-07 11:37 45.26794 -3.90217 34003 ft 447 kts
2026-05-07 11:38 45.33001 -3.89645 34006 ft 447 kts
2026-05-07 11:38 45.39198 -3.89071 34009 ft 446 kts
2026-05-07 11:39 45.45384 -3.88496 33999 ft 445 kts
2026-05-07 11:39 45.51531 -3.87926 33994 ft 446 kts
2026-05-07 11:40 45.57764 -3.87342 33994 ft 446 kts
2026-05-07 11:40 45.63910 -3.86769 33998 ft 446 kts
2026-05-07 11:41 45.70103 -3.86180 33998 ft 446 kts
2026-05-07 11:41 45.76295 -3.85602 34010 ft 446 kts
2026-05-07 11:42 45.82480 -3.85025 34010 ft 445 kts
2026-05-07 11:42 45.88659 -3.84448 34008 ft 445 kts
2026-05-07 11:43 45.94827 -3.83871 34014 ft 444 kts
2026-05-07 11:43 46.00994 -3.83276 34011 ft 444 kts
2026-05-07 11:44 46.07157 -3.82684 34008 ft 444 kts
2026-05-07 11:44 46.13316 -3.82105 34017 ft 443 kts
2026-05-07 11:45 46.19471 -3.81514 34016 ft 443 kts
2026-05-07 11:45 46.25625 -3.80927 34012 ft 443 kts
2026-05-07 11:46 46.31776 -3.80332 34022 ft 443 kts
2026-05-07 11:46 46.37920 -3.79735 34018 ft 443 kts
2026-05-07 11:47 46.44069 -3.79144 34015 ft 443 kts
2026-05-07 11:47 46.50218 -3.78558 34012 ft 443 kts
2026-05-07 11:48 46.56367 -3.77966 34015 ft 443 kts
2026-05-07 11:48 46.62518 -3.77368 34012 ft 443 kts
2026-05-07 11:49 46.68669 -3.76765 34011 ft 443 kts
2026-05-07 11:49 46.74780 -3.76170 34011 ft 443 kts
2026-05-07 11:50 46.80925 -3.75561 34010 ft 443 kts
2026-05-07 11:50 46.87077 -3.74968 34010 ft 443 kts
2026-05-07 11:51 46.93228 -3.74371 34013 ft 443 kts
2026-05-07 11:51 46.99379 -3.73770 34009 ft 443 kts
2026-05-07 11:52 47.05530 -3.73161 34010 ft 443 kts
2026-05-07 11:52 47.11681 -3.72555 34009 ft 443 kts
2026-05-07 11:53 47.17832 -3.71938 34014 ft 443 kts
2026-05-07 11:53 47.23976 -3.71330 34004 ft 443 kts
2026-05-07 11:54 47.30123 -3.70724 34006 ft 443 kts
2026-05-07 11:54 47.36268 -3.70107 34013 ft 442 kts
2026-05-07 11:55 47.42368 -3.69490 34008 ft 442 kts
2026-05-07 11:55 47.48505 -3.68888 34009 ft 442 kts
2026-05-07 11:56 47.54639 -3.68274 34017 ft 442 kts
2026-05-07 11:56 47.60772 -3.67652 34014 ft 442 kts
2026-05-07 11:57 47.66917 -3.67028 34010 ft 442 kts
2026-05-07 11:57 47.73049 -3.66401 34011 ft 442 kts
2026-05-07 11:58 47.79181 -3.65785 34009 ft 442 kts
2026-05-07 11:58 47.85310 -3.65167 33994 ft 442 kts
2026-05-07 11:59 47.91444 -3.64542 33994 ft 442 kts
2026-05-07 11:59 47.97579 -3.63913 34001 ft 442 kts
2026-05-07 12:00 48.03675 -3.63293 33998 ft 442 kts
2026-05-07 12:00 48.09806 -3.62666 33997 ft 442 kts
2026-05-07 12:01 48.15980 -3.62033 33999 ft 442 kts
2026-05-07 12:01 48.22105 -3.61396 33997 ft 441 kts
2026-05-07 12:02 48.28181 -3.60555 33983 ft 442 kts 11°
2026-05-07 12:02 48.31130 -3.59268 33993 ft 442 kts 22°
2026-05-07 12:02 48.33889 -3.57248 33989 ft 441 kts 32°
2026-05-07 12:03 48.38531 -3.51309 33992 ft 439 kts 50°
2026-05-07 12:03 48.42542 -3.44437 33980 ft 440 kts 49°
2026-05-07 12:04 48.46595 -3.37490 33985 ft 441 kts 50°
2026-05-07 12:04 48.49956 -3.31717 33994 ft 440 kts 50°
2026-05-07 12:05 48.53998 -3.24763 34005 ft 441 kts 50°
2026-05-07 12:05 48.58030 -3.17788 34007 ft 441 kts 50°
2026-05-07 12:06 48.62056 -3.10809 34012 ft 441 kts 50°
2026-05-07 12:06 48.66092 -3.03818 33989 ft 441 kts 49°
2026-05-07 12:07 48.69924 -2.96583 34008 ft 440 kts 60°
2026-05-07 12:07 48.72289 -2.88107 33992 ft 437 kts 77°
2026-05-07 12:08 48.73803 -2.79191 34011 ft 437 kts 77°
2026-05-07 12:08 48.75323 -2.70273 34019 ft 437 kts 77°
2026-05-07 12:09 48.77111 -2.61621 34015 ft 439 kts 65°
2026-05-07 12:09 48.80550 -2.54011 34019 ft 440 kts 45°
2026-05-07 12:10 48.85265 -2.48106 34015 ft 440 kts 37°
2026-05-07 12:10 48.90109 -2.42428 34024 ft 440 kts 37°
2026-05-07 12:11 48.94964 -2.36729 34035 ft 441 kts 37°
2026-05-07 12:11 48.99816 -2.31029 34036 ft 441 kts 37°
2026-05-07 12:12 49.04677 -2.25317 34044 ft 442 kts 37°
2026-05-07 12:12 49.09534 -2.19584 34048 ft 442 kts 37°
2026-05-07 12:13 49.14355 -2.13873 34047 ft 441 kts 37°
2026-05-07 12:13 49.19191 -2.08108 34047 ft 441 kts 37°
2026-05-07 12:14 49.24227 -2.02813 34048 ft 439 kts 27°
2026-05-07 12:14 49.29586 -1.98297 34054 ft 439 kts 28°
2026-05-07 12:15 49.34932 -1.93757 34043 ft 439 kts 28°
2026-05-07 12:15 49.40275 -1.89205 34040 ft 439 kts 28°
2026-05-07 12:16 49.45617 -1.84642 34044 ft 439 kts 28°
2026-05-07 12:16 49.50956 -1.80072 34044 ft 439 kts 28°
2026-05-07 12:17 49.56287 -1.75503 34045 ft 439 kts 28°
2026-05-07 12:17 49.61767 -1.71429 34045 ft 436 kts 18°
2026-05-07 12:18 49.67495 -1.68305 34048 ft 437 kts 18°
2026-05-07 12:18 49.73217 -1.65137 34047 ft 437 kts 18°
2026-05-07 12:19 49.78972 -1.61941 34060 ft 446 kts 18°
2026-05-07 12:19 49.84838 -1.58679 34024 ft 441 kts 18°
2026-05-07 12:19 49.87692 -1.57084 33727 ft 432 kts 18°
2026-05-07 12:20 49.90497 -1.55520 33301 ft 426 kts 18°
2026-05-07 12:20 49.93279 -1.53966 32825 ft 422 kts 18°
2026-05-07 12:20 49.95996 -1.52445 32374 ft 419 kts 18°
2026-05-07 12:20 49.98720 -1.50921 31898 ft 415 kts 18°
2026-05-07 12:21 50.01435 -1.49427 31437 ft 412 kts 17°
2026-05-07 12:21 50.04148 -1.48048 30965 ft 408 kts 15°
2026-05-07 12:21 50.06849 -1.46748 30511 ft 405 kts 14°
2026-05-07 12:21 50.09530 -1.45491 30057 ft 402 kts 14°
2026-05-07 12:22 50.12200 -1.44235 29530 ft 399 kts 15°
2026-05-07 12:22 50.14842 -1.42974 29010 ft 396 kts 15°
2026-05-07 12:22 50.17460 -1.41705 28511 ft 393 kts 15°
2026-05-07 12:22 50.20051 -1.40436 28029 ft 389 kts 15°
2026-05-07 12:23 50.22626 -1.39164 27556 ft 386 kts 15°
2026-05-07 12:23 50.25180 -1.37897 27078 ft 384 kts 15°
2026-05-07 12:23 50.27716 -1.36639 26616 ft 381 kts 15°
2026-05-07 12:23 50.30230 -1.35390 26170 ft 378 kts 15°
2026-05-07 12:24 50.32728 -1.34153 25719 ft 375 kts 15°
2026-05-07 12:24 50.35209 -1.32927 25280 ft 373 kts 15°
2026-05-07 12:24 50.37669 -1.31711 24841 ft 370 kts 15°
2026-05-07 12:24 50.40119 -1.30501 24404 ft 368 kts 15°
2026-05-07 12:25 50.42558 -1.29298 23993 ft 366 kts 15°
2026-05-07 12:25 50.44974 -1.28101 23548 ft 364 kts 16°
2026-05-07 12:25 50.47382 -1.26904 23071 ft 362 kts 16°
2026-05-07 12:25 50.49726 -1.25498 22627 ft 361 kts 26°
2026-05-07 12:26 50.51820 -1.23444 22185 ft 359 kts 37°
2026-05-07 12:26 50.53765 -1.20909 21736 ft 357 kts 39°
2026-05-07 12:26 50.55635 -1.18441 21316 ft 355 kts 39°
2026-05-07 12:26 50.57523 -1.15946 20894 ft 353 kts 39°
2026-05-07 12:27 50.59399 -1.13469 20496 ft 351 kts 39°
2026-05-07 12:27 50.61259 -1.11013 20092 ft 349 kts 39°
2026-05-07 12:27 50.63117 -1.08561 19708 ft 347 kts 39°
2026-05-07 12:27 50.64957 -1.06134 19333 ft 345 kts 40°
2026-05-07 12:28 50.66641 -1.03471 18961 ft 342 kts 51°
2026-05-07 12:28 50.68149 -1.00576 18593 ft 341 kts 51°
2026-05-07 12:28 50.69647 -0.97693 18225 ft 339 kts 51°
2026-05-07 12:28 50.71133 -0.94819 17833 ft 337 kts 51°
2026-05-07 12:29 50.72611 -0.91979 17458 ft 334 kts 51°
2026-05-07 12:29 50.74087 -0.89139 16983 ft 335 kts 51°
2026-05-07 12:29 50.75556 -0.86287 16595 ft 334 kts 51°
2026-05-07 12:29 50.77018 -0.83441 16209 ft 333 kts 51°
2026-05-07 12:30 50.78472 -0.80610 15818 ft 332 kts 51°
2026-05-07 12:30 50.79916 -0.77773 15442 ft 330 kts 55°
2026-05-07 12:30 50.81032 -0.74624 15067 ft 328 kts 70°
2026-05-07 12:30 50.81629 -0.71172 14698 ft 325 kts 81°
2026-05-07 12:31 50.82030 -0.67671 14336 ft 324 kts 81°
2026-05-07 12:31 50.82435 -0.64176 13984 ft 322 kts 81°
2026-05-07 12:31 50.82839 -0.60700 13598 ft 321 kts 81°
2026-05-07 12:31 50.83245 -0.57229 13182 ft 320 kts 81°
2026-05-07 12:32 50.83647 -0.53782 12786 ft 318 kts 81°
2026-05-07 12:32 50.84044 -0.50349 12394 ft 316 kts 81°
2026-05-07 12:32 50.84438 -0.46932 12000 ft 315 kts 81°
2026-05-07 12:32 50.84829 -0.43530 11622 ft 313 kts 81°
2026-05-07 12:33 50.85602 -0.36785 10860 ft 310 kts 81°
2026-05-07 12:33 50.85977 -0.33486 10499 ft 308 kts 81°
2026-05-07 12:33 50.86359 -0.30120 10130 ft 306 kts 81°
2026-05-07 12:34 50.86731 -0.26823 9744 ft 304 kts 82°
2026-05-07 12:34 50.87097 -0.23583 9345 ft 302 kts 81°
2026-05-07 12:34 50.87461 -0.20352 8940 ft 293 kts 81°
2026-05-07 12:34 50.87812 -0.17238 8544 ft 282 kts 81°
2026-05-07 12:35 50.88149 -0.14242 8157 ft 270 kts 81°
2026-05-07 12:35 50.88470 -0.11368 7770 ft 260 kts 81°
2026-05-07 12:35 50.88819 -0.08617 7389 ft 251 kts 71°
2026-05-07 12:35 50.89666 -0.06269 7049 ft 244 kts 46°
2026-05-07 12:36 50.91011 -0.04678 7008 ft 244 kts 24°
2026-05-07 12:36 50.92638 -0.04008 7006 ft 243 kts
2026-05-07 12:36 50.94296 -0.04393 7005 ft 242 kts 338°
2026-05-07 12:36 50.95721 -0.05764 7006 ft 240 kts 315°
2026-05-07 12:37 50.96700 -0.07876 6954 ft 239 kts 295°
2026-05-07 12:37 50.97320 -0.10395 6364 ft 251 kts 287°
2026-05-07 12:37 50.97857 -0.13121 6054 ft 263 kts 287°
2026-05-07 12:37 50.98384 -0.15911 5732 ft 264 kts 286°
2026-05-07 12:38 50.98910 -0.18697 5421 ft 263 kts 286°
2026-05-07 12:38 50.99434 -0.21474 5111 ft 262 kts 286°
2026-05-07 12:38 50.99949 -0.24223 4804 ft 258 kts 286°
2026-05-07 12:38 51.00455 -0.26920 4486 ft 252 kts 286°
2026-05-07 12:39 51.00947 -0.29539 4173 ft 248 kts 286°
2026-05-07 12:39 51.01434 -0.32137 3863 ft 244 kts 286°
2026-05-07 12:39 51.01914 -0.34700 3558 ft 241 kts 286°
2026-05-07 12:39 51.02389 -0.37230 3255 ft 238 kts 286°
2026-05-07 12:40 51.02997 -0.39629 3033 ft 232 kts 306°
2026-05-07 12:40 51.04211 -0.41231 3000 ft 224 kts 332°
2026-05-07 12:40 51.05579 -0.42258 3000 ft 211 kts 335°
2026-05-07 12:40 51.06889 -0.43121 2998 ft 199 kts 343°
2026-05-07 12:41 51.08233 -0.43199 3006 ft 192 kts
2026-05-07 12:41 51.09536 -0.42826 3024 ft 189 kts 15°
2026-05-07 12:41 51.10716 -0.41919 2982 ft 190 kts 36°
2026-05-07 12:41 51.11618 -0.40410 2748 ft 187 kts 58°
2026-05-07 12:42 51.12099 -0.38553 2526 ft 179 kts 77°
2026-05-07 12:42 51.12362 -0.36656 2283 ft 171 kts 78°
2026-05-07 12:42 51.12619 -0.34826 2052 ft 167 kts 78°
2026-05-07 12:42 51.12871 -0.33022 1831 ft 166 kts 78°
2026-05-07 12:43 51.13119 -0.31243 1609 ft 160 kts 78°
2026-05-07 12:43 51.13350 -0.29589 1398 ft 148 kts 78°
2026-05-07 12:43 51.13566 -0.28024 1190 ft 143 kts 79°
2026-05-07 12:43 51.13775 -0.26495 978 ft 139 kts 76°
2026-05-07 12:44 51.13985 -0.25006 804 ft 137 kts 73°
2026-05-07 12:44 51.14195 -0.23536 627 ft 135 kts 78°
2026-05-07 12:44 51.14395 -0.22075 417 ft 135 kts 78°
2026-05-07 12:44 51.14592 -0.20645 253 ft 133 kts 77°
2026-05-07 12:45 51.14778 -0.19294 209 ft 104 kts 77°
2026-05-07 12:45 51.14895 -0.18453 206 ft 52 kts 78°
2026-05-07 12:45 51.14960 -0.18035 213 ft 27 kts 67°
2026-05-07 12:45 51.15052 -0.17812 214 ft 17 kts 52°
2026-05-07 12:46 51.15127 -0.17763 206 ft 7 kts 352°
2026-05-07 12:46 51.15131 -0.17764 206 ft 0 kts 352°
2026-05-07 12:46 51.15134 -0.17764 205 ft 1 kts 352°
2026-05-07 12:46 51.15178 -0.17773 216 ft 10 kts 353°
2026-05-07 12:47 51.15239 -0.17803 211 ft 9 kts 318°
2026-05-07 12:47 51.15241 -0.17886 214 ft 8 kts 256°
2026-05-07 12:47 51.15223 -0.17998 208 ft 11 kts 257°
2026-05-07 12:47 51.15236 -0.18099 215 ft 9 kts 328°
2026-05-07 12:48 51.15292 -0.18122 205 ft 8 kts 356°
2026-05-07 12:48 51.15342 -0.18132 210 ft 7 kts 348°
2026-05-07 12:48 51.15384 -0.18148 208 ft 6 kts 347°
2026-05-07 12:48 51.15419 -0.18161 213 ft 5 kts 347°
2026-05-07 12:49 51.15470 -0.18181 210 ft 13 kts 343°
2026-05-07 12:49 51.15585 -0.18227 210 ft 17 kts 348°
2026-05-07 12:49 51.15672 -0.18159 205 ft 17 kts 81°
2026-05-07 12:49 51.15699 -0.17968 208 ft 16 kts 77°
2026-05-07 12:50 51.15690 -0.17870 214 ft 7 kts 161°
2026-05-07 12:50 51.15647 -0.17857 214 ft 3 kts 167°
2026-05-07 12:50 51.15644 -0.17856 212 ft 0 kts 167°